Regional Weather Roundup
Issued by NWS Charleston, SC

Current Version | Previous Version | Graphics & Text | Print | Product List | Glossary On
Versions: 1 2 3 4 5 6 7 8 9 10 11 12 13 14 15 16 17 18 19 20 21 22 23 24 25 26 27 28 29 30 31 32 33 34 35 36 37 38 39 40 41 42 43 44 45 46 47 48 49 50
000 ASUS42 KCHS 231227 RWRCHS REGIONAL WEATHER ROUNDUP NATIONAL WEATHER SERVICE CHARLESTON SC 800 AM EDT SUN JUL 23 2017 NOTE: "FAIR" INDICATES FEW OR NO CLOUDS BELOW 12,000 FEET WITH NO SIGNIFICANT WEATHER AND/OR OBSTRUCTIONS TO VISIBILITY. NOT ALL STATIONS ARE QUALITY CONTROLLED. USE DATA WITH CAUTION... ESPECIALLY DEWPOINT OBSERVATIONS. SCZ027-030-031-034>040-042>050-231300- ...SOUTHEAST SOUTH CAROLINA... CITY SKY/WX TMP DP RH WIND PRES REMARKS N CHARLESTON MOSUNNY 79 74 84 SW8 29.98R 6HR MIN TEMP: 77; 6HR MAX TEMP: 79; WATERFRONT PRK N/A 80 77 90 SW5 29.95R JOHNS ISLAND FAIR 82 77 83 SW7 29.98R HX 91 PINOPOLIS N/A 79 75 89 SW7 29.88R MONCKS CORNER FAIR 79 75 89 SW7 29.97R SUMMERVILLE FAIR 77 73 88 CALM 29.98R BEAUFORT MCAS SUNNY 80 77 90 SW12 29.99R 6HR MIN TEMP: 77; 6HR MAX TEMP: 80; BEAUFORT ARPT PTSUNNY 79 75 89 SW8 29.99R HILTON HEAD IS MOSUNNY 77 75 94 SW12 30.00R WALTERBORO SUNNY 77 73 88 SW6 29.98S ALLENDALE NOT AVBL ...SOUTHERN MIDLANDS AND PEE DEE... CITY SKY/WX TMP DP RH WIND PRES REMARKS GEORGETOWN FAIR 79 77 94 SW9 29.97S KINGSTREE FAIR 79 73 83 SW5 29.95R ORANGEBURG SUNNY 78 74 87 SW5 29.96R 6HR MIN TEMP: 75; 6HR MAX TEMP: 78; BARNWELL FAIR 82 77 83 SW6 29.97S HX 91 AIKEN FAIR 77 73 88 SW8 30.00R MANNING FAIR 79 77 94 W7 29.95S COLUMBIA MOSUNNY 80 73 79 SW9 29.93R 6HR MIN TEMP: 78; 6HR MAX TEMP: 81; SUMTER SUNNY 79 74 84 SW12 29.92R 6HR MIN TEMP: 76; 6HR MAX TEMP: 79; FLORENCE SUNNY 78 75 90 SW9 29.93S 6HR MIN TEMP: 76; 6HR MAX TEMP: 79; MYRTLE BEACH SUNNY 81 75 83 SW8 29.96R N MYRTLE BEACH SUNNY 81 76 84 SW10 29.94R 6HR MIN TEMP: 79; 6HR MAX TEMP: 81; $$ GAZ063-065-086>088-099>101-113>116-118-119-134>141-150-231300- ...SOUTHEAST GEORGIA... CITY SKY/WX TMP DP RH WIND PRES REMARKS SAVANNAH ARPT PTSUNNY 78 75 90 SW10 30.01R HUNTER AAF CLOUDY 78 75 92 SW8 29.98R 6HR MIN TEMP: 76; 6HR MAX TEMP: 78; FORT STEWART CLOUDY 79 75 89 SW8 29.99R 6HR MIN TEMP: 75; 6HR MAX TEMP: 78; STATESBORO MOSUNNY 80 80 98 SW7 30.00R SYLVANIA MOSUNNY 79 77 93 W3 30.00R CLAXTON CLOUDY 79 77 93 CALM 30.00S ...CSRA...CENTRAL AND FAR SOUTHEAST GEORGIA... CITY SKY/WX TMP DP RH WIND PRES REMARKS THOMSON SUNNY 79 74 84 NW7 30.02S AUGUSTA-BUSH SUNNY 81 75 82 SW10 29.95R 6HR MIN TEMP: 79; 6HR MAX TEMP: 81; AUGUSTA-DANIEL SUNNY 80 72 76 VRB5 29.97R SWAINSBORO FAIR 79 75 89 SW5 30.01R VIDALIA CLOUDY 79 77 94 SW8 30.01S EASTMAN FAIR 79 79 100 SW3 30.03S HAZLEHURST FAIR 79 79 100 CALM 30.01S ALMA PTSUNNY 79 76 90 SW6 30.02R 6HR MIN TEMP: 77; 6HR MAX TEMP: 79; WAYCROSS CLOUDY 80 80 100 SW5 30.03R JESUP NOT AVBL BAXLEY CLOUDY 79 79 100 CALM 30.02R BRUNSWICK CLOUDY 79 77 94 W7 30.03S SAINT SIMONS CLOUDY 79 76 90 W7 30.02R 6HR MIN TEMP: 77; 6HR MAX TEMP: 79; $$ SCZ027-028-034-036>038-045-046-048>050-GAZ119-141-231300- ...LAKE AND SUPPLEMENTAL COASTAL OBSERVATIONS... STATION/POSITION TIME TEMP WIND PRES WAVE SWELL AIR SEA DIR/SP/G HT/PER HT/PER/DIR (UTC) (F) (DEG/KT/KT) (MB) (FT/S) (FT/S/D) WINYAH BAY 1145 79 230/ 7 1014.0S LAKE MURRAY NOT AVBL ACE BASIN NERRS 1130 79 CALM 1015.0S FORT PULASKI 1200 79 86 240/ 7/ 10 1016.3 SAPELO ISLAND 1200 78 250/ 8 1016.0 $$ ANZ835-935-AMZ111-154-330-350-352-354-370-450-454-472-231300- ...C-MAN AND BUOY OBSERVATIONS... STATION/POSITION TIME TEMP WIND PRES WAVE SWELL AIR SEA DIR/SP/G HT/PER HT/PER/DIR (UTC) (F) (DEG/KT/KT) (MB) (FT/S) (FT/S/D) BUOY 41004 1210 82 83 230/ 17/ 21 1014.9 BUOY 41008 1150 79 80 240/ 14/ 16 1015.7R 3/ 5 2/ 90/ 9 FOLLY BEACH CMAN 1200 82 230/ 9/ 12 1015.7R CAPERS NEARSHORE 1208 81 83 240/ 14/ 17 1014.6R FRIPP NEARSHORE 1208 80 84 230/ 14/ 17 1015.0R STATION/POSITION TIME TEMP WIND PRES WAVE SWELL AIR SEA DIR/SP/G HT/PER HT/PER/DIR (UTC) (F) (DEG/KT/KT) (MB) (FT/S) (FT/S/D) 5E ST. MARYS GA 1200 81 N/A 2/ 9 FRYING PAN BUOY 1210 82 84 220/ 17/ 21 1014.1 BUOY 41025 1150 83 85 240/ 25/ 29 1011.9R 5/ 6 2/160/ 9 CAPE LOOKOUT NC 1200 82 220/ 14/ 17 1012.9R BUOY 41002 1150 83 83 230/ 17/ 21 1016.6R 5/ 5 2/110/10 BUOY 41010 1210 80 85 250/ 17/ 21 1017.5 ST AUGUSTINE FL 1200 76 76 220/ 3/ 3 1017.5R $$

USA.gov is the U.S. government's official web portal to all federal, state and local government web resources and services.